Wind_Speed
50 50 49 49 49 48 48 48 49 48 46 46 47 48 49 49 49 49 49 48 47 46 45 45 44 44 43 42 41 42 42 42 41 42 41 41 41 40
50 50 49 48 48 48 49 49 49 49 47 45 47 48 48 48 48 48 47 47 46 44 43 43 43 42 42 42 42 42 42 41 41 40 39 39 40 39
49 48 49 49 49 49 50 49 49 49 48 46 46 47 47 47 47 47 46 45 45 43 42 42 42 42 42 42 42 41 40 39 39 38 37 37 38 38
49 49 49 49 49 49 49 49 49 49 48 47 46 47 47 46 45 45 44 43 43 42 42 41 41 41 41 41 40 39 39 39 39 38 38 38 38 38
47 48 48 48 48 47 47 47 48 47 47 47 46 46 46 44 44 43 42 42 41 41 40 40 40 39 39 38 38 38 39 39 38 38 38 38 37 37
45 46 46 46 45 45 45 45 45 45 45 46 45 44 44 43 43 41 40 40 39 38 39 40 39 38 36 36 37 37 38 37 37 37 36 35 35 35
43 43 44 45 45 44 44 44 44 43 43 43 42 42 41 40 40 39 39 38 38 37 37 38 38 37 36 35 35 36 36 36 36 36 35 34 33 33
42 42 43 44 43 43 43 43 43 42 41 40 40 40 39 38 38 38 38 37 37 36 36 36 36 35 34 34 35 36 36 35 35 34 33 32 31 31
40 40 42 41 41 42 41 41 40 40 39 39 39 38 38 37 36 36 37 36 35 35 34 34 34 33 33 33 34 35 34 33 32 31 30 30 29 29
38 39 39 38 38 39 39 38 38 38 37 36 35 35 34 34 35 35 35 34 33 34 34 33 33 33 32 31 31 31 30 30 29 29 29 28 27 27
37 37 37 36 36 35 35 35 35 34 33 33 33 33 33 33 33 33 33 33 32 32 32 31 30 30 30 30 29 28 28 28 27 27 26 25 26 26
35 34 34 34 34 34 33 33 33 32 32 32 32 33 32 32 32 32 32 32 31 30 29 29 29 29 28 28 27 27 27 26 26 25 24 24 24 24
32 33 33 33 32 33 33 32 32 32 31 32 32 32 32 32 32 31 30 30 29 28 28 27 28 28 28 27 26 25 24 24 24 23 23 23 24 24
30 30 30 30 30 30 31 32 32 31 31 30 30 30 30 29 28 27 26 26 26 25 25 25 26 27 26 25 24 24 23 23 23 23 23 23 23 22
28 28 27 28 28 29 30 30 30 30 29 29 28 28 27 26 25 24 24 24 24 24 24 24 24 24 24 23 22 22 22 23 23 22 22 22 22 21
25 25 25 25 27 27 27 27 28 28 28 27 25 25 24 23 24 24 23 23 23 23 23 22 22 21 21 21 20 20 20 21 21 21 21 21 21 20
23 23 24 24 24 25 25 25 25 25 24 23 23 23 23 23 23 23 22 22 22 22 21 21 19 18 18 18 18 18 18 18 19 19 20 19 19 18
20 20 21 21 21 21 22 22 22 21 21 21 22 22 21 21 21 21 21 20 20 20 20 19 19 18 17 17 17 17 17 17 17 18 18 18 17 17
18 18 18 18 18 18 19 19 19 19 19 20 20 20 20 20 20 19 19 19 19 19 19 18 17 16 16 16 16 16 16 15 15 16 16 16 16 16
17 16 16 16 16 16 17 17 17 18 18 18 18 18 18 17 17 17 17 18 18 17 17 17 16 15 15 15 15 14 14 13 13 14 14 14 13 14
15 15 15 15 16 16 16 16 16 16 16 16 16 16 15 15 15 15 15 15 15 14 14 14 14 14 14 14 13 13 13 12 12 12 13 13 13 13
14 14 14 14 14 14 14 15 15 15 15 15 14 14 14 14 13 13 13 13 13 13 13 12 12 13 13 13 12 11 10 11 11 11 11 11 11 11
14 14 14 14 13 13 13 13 13 13 12 12 12 12 12 11 11 11 11 11 11 10 11 11 12 12 11 11 10 10 9 9 8 8 9 9 9 9
Wind_Direction
267 269 270 270 271 272 273 273 273 273 274 274 274 275 276 276 277 278 279 279 280 281 281 280 280 281 282 281 281 281 280 280 281 281 280 280 280 279
268 268 269 270 271 273 273 274 274 274 274 275 275 276 277 278 278 278 278 279 279 280 280 281 281 281 281 280 280 280 280 280 281 281 280 280 280 281
267 268 268 269 270 272 273 273 274 274 274 274 275 276 277 278 278 279 278 277 277 278 280 280 281 281 280 280 280 280 280 281 280 280 279 280 281 281
267 268 269 269 270 271 272 273 274 274 274 275 275 276 278 278 278 278 279 278 278 278 278 279 281 281 280 280 279 279 279 280 280 279 280 280 281 282
266 268 269 270 270 271 272 273 273 274 275 274 274 275 276 277 278 279 279 279 279 279 278 279 281 282 282 279 278 279 280 280 281 281 280 281 281 281
267 268 269 269 271 271 271 272 272 273 275 274 274 275 276 277 278 278 279 280 279 279 279 280 281 282 283 281 280 280 281 282 281 281 281 281 281 281
268 269 269 270 270 269 269 270 272 273 274 274 274 274 275 276 276 277 278 278 278 279 280 281 281 282 281 282 282 282 282 283 283 282 281 280 281 281
267 269 270 271 269 268 269 271 271 272 273 273 274 274 274 275 275 276 277 276 277 278 279 281 281 281 281 281 283 284 284 283 282 281 280 280 281 280
268 269 270 270 269 267 269 271 272 272 271 273 274 274 274 274 274 275 276 277 277 277 277 279 280 280 280 281 283 284 285 285 283 280 278 279 279 279
267 268 268 269 269 268 269 269 269 270 271 273 273 273 273 274 274 275 276 276 277 277 277 278 280 281 281 282 285 285 285 286 284 281 279 277 277 276
267 268 268 267 268 267 267 267 267 267 269 271 273 273 274 275 276 275 276 276 278 279 278 277 278 280 281 282 284 285 286 287 285 283 279 275 275 275
268 269 269 267 265 266 267 267 267 268 270 272 274 275 275 274 275 276 276 275 276 277 276 276 278 279 281 281 284 286 287 287 287 284 279 276 276 276
269 270 269 268 267 266 265 267 268 269 271 273 275 276 275 274 273 274 274 273 273 276 274 274 277 279 281 281 282 283 284 284 283 282 281 278 278 278
268 269 268 268 267 266 265 267 270 271 273 274 275 275 275 275 273 272 271 269 271 274 274 274 277 280 281 280 280 281 281 280 279 282 283 281 280 279
270 268 267 266 265 267 267 268 270 271 271 272 272 272 273 272 270 269 268 268 270 273 274 275 277 279 279 280 280 279 280 279 279 281 283 282 281 279
270 268 267 266 268 268 267 268 268 268 269 269 269 271 270 267 266 268 267 265 268 272 273 274 276 277 279 281 281 281 282 282 282 282 284 283 284 281
270 269 267 267 268 268 267 268 268 268 268 268 267 269 268 267 266 266 265 264 268 270 270 274 275 275 278 280 283 284 286 286 286 285 285 284 284 282
273 272 268 268 269 269 269 268 266 265 266 267 267 268 267 267 265 263 262 263 265 265 268 271 273 276 278 280 282 285 287 289 290 290 288 286 285 282
272 269 267 268 270 271 270 268 265 265 266 267 268 267 267 267 263 261 261 261 262 263 266 268 271 275 278 281 283 284 288 293 293 292 292 291 287 282
271 268 268 270 271 271 269 265 262 263 264 266 266 266 265 264 262 260 259 260 261 263 264 266 268 272 278 280 281 284 289 293 293 293 294 294 292 287
271 271 271 272 273 270 266 262 262 263 262 262 263 264 264 263 262 262 261 261 262 262 261 263 266 272 275 277 280 284 289 292 292 291 293 295 295 294
272 272 274 276 276 272 266 262 261 263 262 261 261 262 263 263 262 262 260 262 263 262 261 262 265 269 273 277 279 283 286 290 291 289 290 294 298 298
271 271 273 274 273 266 261 260 260 260 260 262 263 261 260 258 257 255 253 256 257 259 262 264 265 269 273 273 276 281 285 290 293 294 295 296 300 302
Height
5650 5650 5650 5650 5649 5647 5646 5645 5644 5644 5644 5642 5640 5637 5635 5633 5631 5629 5627 5625 5623 5621 5618 5616 5614 5612 5610 5608 5605 5603 5601 5599 5596 5594 5592 5590 5589 5587
5637 5637 5637 5637 5636 5635 5634 5632 5631 5630 5630 5630 5627 5625 5623 5621 5618 5616 5614 5613 5611 5609 5606 5604 5602 5600 5598 5596 5594 5592 5590 5588 5586 5584 5582 5580 5578 5576
5624 5624 5624 5624 5623 5622 5621 5620 5619 5617 5617 5617 5615 5612 5610 5608 5606 5603 5602 5600 5599 5597 5595 5593 5591 5589 5587 5585 5583 5581 5579 5577 5575 5574 5571 5570 5568 5566
5611 5611 5611 5610 5610 5609 5608 5607 5606 5605 5604 5604 5602 5600 5598 5595 5594 5592 5590 5589 5587 5586 5584 5582 5580 5578 5576 5573 5571 5570 5569 5567 5565 5563 5561 5560 5558 5556
5598 5598 5598 5597 5597 5596 5595 5594 5593 5592 5591 5590 5590 5588 5586 5584 5583 5581 5579 5578 5576 5575 5573 5571 5570 5567 5565 5563 5561 5560 5558 5557 5555 5553 5551 5549 5547 5545
5584 5585 5585 5584 5584 5583 5582 5582 5581 5580 5578 5577 5577 5576 5574 5573 5571 5570 5569 5567 5566 5565 5563 5562 5560 5558 5555 5553 5552 5550 5548 5546 5544 5543 5541 5539 5537 5536
5572 5572 5572 5572 5572 5571 5571 5570 5569 5568 5567 5566 5565 5564 5563 5562 5561 5560 5559 5557 5556 5555 5553 5552 5550 5548 5546 5544 5542 5540 5538 5536 5534 5533 5531 5529 5528 5527
5560 5560 5560 5560 5559 5559 5559 5558 5557 5557 5556 5555 5555 5554 5553 5552 5551 5550 5549 5548 5547 5546 5544 5542 5540 5539 5537 5535 5533 5531 5528 5526 5525 5523 5521 5520 5519 5518
5548 5548 5549 5548 5548 5548 5548 5547 5547 5546 5545 5545 5544 5544 5543 5543 5542 5541 5539 5538 5537 5536 5534 5533 5531 5530 5528 5526 5524 5522 5519 5517 5515 5513 5512 5511 5511 5509
5538 5538 5538 5538 5538 5537 5537 5537 5537 5536 5536 5535 5535 5534 5533 5533 5532 5531 5530 5529 5528 5526 5525 5524 5523 5522 5520 5518 5515 5513 5511 5509 5506 5505 5503 5503 5503 5502
5528 5528 5528 5528 5528 5527 5527 5528 5527 5527 5526 5526 5525 5525 5524 5523 5523 5522 5520 5520 5519 5518 5516 5515 5515 5513 5512 5510 5508 5506 5503 5501 5499 5497 5496 5495 5495 5495
5518 5518 5518 5518 5518 5517 5518 5518 5518 5518 5517 5517 5517 5516 5515 5514 5513 5512 5512 5511 5510 5509 5508 5507 5506 5505 5504 5502 5500 5498 5496 5494 5492 5490 5489 5489 5488 5487
5508 5508 5508 5508 5508 5508 5508 5509 5509 5509 5508 5508 5507 5507 5506 5505 5505 5504 5503 5502 5502 5502 5501 5500 5499 5497 5496 5495 5493 5491 5490 5488 5486 5485 5483 5483 5482 5481
5499 5499 5499 5499 5499 5499 5499 5500 5500 5500 5499 5499 5499 5498 5498 5497 5496 5496 5495 5495 5495 5494 5493 5492 5492 5490 5489 5488 5487 5485 5483 5482 5480 5479 5478 5477 5476 5474
5490 5490 5490 5490 5490 5490 5491 5491 5491 5491 5491 5490 5490 5490 5490 5489 5489 5489 5488 5488 5488 5487 5486 5486 5485 5483 5482 5481 5480 5479 5478 5476 5474 5473 5472 5471 5470 5468
5481 5481 5481 5482 5482 5482 5482 5482 5482 5482 5482 5482 5482 5482 5482 5482 5482 5482 5482 5482 5482 5482 5481 5480 5479 5478 5476 5475 5474 5473 5471 5470 5469 5467 5466 5464 5463 5462
5474 5473 5474 5474 5474 5474 5474 5474 5474 5474 5474 5474 5475 5475 5475 5475 5475 5475 5476 5476 5476 5476 5475 5474 5473 5472 5471 5470 5469 5468 5466 5465 5463 5462 5460 5459 5457 5457
5467 5467 5467 5467 5467 5467 5467 5467 5467 5467 5467 5468 5468 5468 5468 5468 5469 5469 5470 5470 5470 5470 5469 5469 5468 5467 5467 5466 5465 5463 5461 5460 5458 5456 5455 5453 5452 5452
5461 5461 5461 5461 5461 5460 5460 5460 5460 5461 5461 5461 5461 5461 5461 5462 5462 5463 5463 5464 5464 5464 5464 5463 5463 5462 5461 5461 5460 5458 5457 5455 5454 5452 5450 5449 5448 5447
5456 5456 5455 5455 5455 5454 5454 5454 5454 5455 5455 5455 5455 5455 5455 5455 5456 5457 5458 5458 5459 5458 5458 5458 5458 5458 5457 5456 5455 5454 5453 5451 5450 5448 5446 5445 5444 5443
5451 5450 5450 5450 5450 5449 5449 5449 5449 5449 5450 5450 5450 5450 5450 5451 5451 5452 5452 5453 5453 5453 5453 5454 5453 5453 5452 5452 5451 5450 5449 5448 5446 5445 5443 5442 5441 5440
5446 5445 5445 5444 5444 5444 5444 5444 5444 5445 5445 5445 5445 5445 5446 5446 5446 5447 5448 5448 5448 5449 5449 5449 5449 5449 5448 5448 5447 5446 5445 5444 5443 5442 5440 5439 5438 5437
5440 5440 5440 5439 5439 5439 5439 5439 5440 5440 5440 5441 5441 5441 5441 5442 5442 5443 5443 5444 5445 5445 5445 5445 5445 5445 5444 5444 5443 5443 5442 5441 5440 5439 5438 5436 5435 5434